Tracking 17883 objects as of 6-December-2016
HD Live streaming from Space Station
objects crossing your sky now

USA 224

Track USA 224 now!
10-day predictions
USA 224 is classified as:


NORAD ID: 37348
Int'l Code: 2011-002A
Perigee: 268.5 km
Apogee: 1,006.8 km
Inclination: 97.9 °
Period: 97.3 minutes
Semi major axis: 7008 km
RCS: Unknown
Launch date: January 20, 2011
Source: United States (US)
Launch site: AIR FORCE WESTERN TEST RANGE (AFWTR)

USA 224 is a secret satellite serving the U.S. National Reconnaissance Office.
Your satellite tracking list
Your tracking list is empty





NASA's NSSDC Master Catalog

Two Line Element Set (TLE):
1 37348U 11002A   16228.97920181 0.00021000  00000-0  19697-3 0    06
2 37348  97.8983 339.5367 0526746 128.9564 231.0435 14.79619028    07
Source of the keplerian elements: McCants